245  
ASUS45 KPSR 270810  
RWRAZ  
 
ARIZONA HOURLY REGIONAL WEATHER ROUNDUP  
NATIONAL WEATHER SERVICE PHOENIX AZ  
100 AM MST THU APR 27 2017  
 
NOTE: FAIR INDICATES FEW OR NO CLOUDS BELOW 12,000 FEET WITH NO  
SIGNIFICANT WEATHER AND/OR S TO VISIBILITY
.  
 
AZZ001>003-036-270900-  
NORTHWEST ARIZONA  
 
CITY SKY/WX TMP DP RH WIND PRES REMARKS
 
BULLHEAD CITY PTCLDY 77 45 31 S8 29.61F  
KINGMAN PTCLDY 66 34 30 SW17 29.73F  

 
 
AZZ004>008-015-016-018-270900-  
NORTH CENTRAL ARIZONA  
 
CITY SKY/WX TMP DP RH WIND PRES REMARKS
 
GRAND CANYON CLOUDY 47 27 45 SW8 29.86S  
PRESCOTT MOCLDY 60 28 29 S10 29.85S  
FLAGSTAFF MOCLDY 50 25 37 W18G32 29.87R  
PAGE MOCLDY 63 30 28 W5 29.68S  

 
 
AZZ009>014-017-270900-  
NORTHEAST ARIZONA  
 
CITY SKY/WX TMP DP RH WIND PRES REMARKS
 
WINSLOW MOCLDY 59 24 26 SW22 29.78F  
SAINT JOHNS PTCLDY 57 21 24 SW20G33 29.79F  
WINDOW ROCK CLOUDY 52 25 35 SW20G26 29.80F  

 
 
AZZ540-542>544-546-548-270900-  
GREATER PHOENIX AREA  
 
CITY SKY/WX TMP DP RH WIND PRES REMARKS
 
PHOENIX MOCLDY 76 34 21 SW7 29.67S  
LUKE AFB MOCLDY 84 27 12 SW13 29.68S  
DEER VALLEY MOCLDY 74 31 20 SW18G24 29.70S  
SCOTTSDALE MOCLDY 76 31 19 SW7 29.71S  
MESA-GATEWAY PTCLDY 70 34 26 SW10 29.71F  

 
 
AZZ539-553-270900-  
SOUTHWEST MARICOPA COUNTY AND PINAL COUNTY  
 
CITY SKY/WX TMP DP RH WIND PRES REMARKS
 
CASA GRANDE PTCLDY 72 38 29 SW8 29.74  
GILA BEND FAIR 77 18 11 S10 29.68R  

 
 
AZZ503-504-507>509-270900-  
SOUTHEAST ARIZONA  
 
CITY SKY/WX TMP DP RH WIND PRES REMARKS
 
TUCSON MOCLDY 71 39 31 S7 29.79F  
DAVIS-MONTHAN PTCLDY 68 38 32 SE7 29.77F  
NOGALES PTCLDY 64 37 36 SE8 29.86F  
SIERRA VISTA PTCLDY 66 28 23 SW10 29.89F  
DOUGLAS PTCLDY 52 18 26 E7 29.88F  
SAFFORD CLEAR 64 20 18 S6 29.77F  

 
 
AZZ532-270900-  
SOUTHWEST ARIZONA  
 
CITY SKY/WX TMP DP RH WIND PRES REMARKS
 
YUMA MOCLDY 73 42 32 S5 29.68S  

 
 
CAZ041-043-047-048-061-525>527-560>570-270900-  
SOUTHERN CALIFORNIA  
 
CITY SKY/WX TMP DP RH WIND PRES REMARKS
 
DOWNTOWN L.A. PTCLDY 63 56 78 CALM 29.83S  
L.A. AIRPORT MOCLDY 58 55 90 S7 29.83S  
SAN DIEGO MOCLDY 63 59 87 S7 29.87F  
BURBANK CLEAR 65 53 65 E6 29.82F  
ONTARIO MOCLDY 60 54 80 SW8 29.85S  
RIVERSIDE PTCLDY 60 54 80 W5 29.85S  
PALM SPRINGS PTCLDY 75 48 38 SE7 29.67S  
EL CENTRO NAS MOCLDY 75 43 31 W7 29.67F  
IMPERIAL MOCLDY 74 48 39 W13 29.65S  
BLYTHE MOCLDY 77 41 27 S14 29.64F  
NEEDLES CLEAR 78 44 29 SW8 29.64S  

 
 
NVZ020-UTZ003-270900-  
SOUTHERN NEVADA-UTAH  
 
CITY SKY/WX TMP DP RH WIND PRES REMARKS
 
LAS VEGAS MOCLDY 72 42 34 S12 29.67R  
SALT LAKE CITY CLOUDY 45 43 93 W5 29.74S  

 
 
NMZ009-TXZ055-270900-  
NEW MEXICO-WEST TEXAS  
 
CITY SKY/WX TMP DP RH WIND PRES REMARKS
 
ALBUQUERQUE PTCLDY 55 23 28 SW10 29.76F  
EL PASO PTCLDY 71 20 14 W16G30 29.78S  

 
 
   
.......................KEY.....................
 
 
SKY/WX - SKY CONDITION/WEATHER  
TMP - TEMPERATURE IN FAHRENHEIT  
DP - DEW POINT IN FAHRENHEIT  
RH - RELATIVE HUMIDITY IN PERCENT  
WIND - DIRECTION AND SPEED IN MILES PER HOUR (MPH)  
VRB - VARIABLE WIND DIRECTION  
PRES - MEAN SEA LEVEL PRESSURE IN INCHES OF MERCURY  
F - FALLING PRESSURE R - RISING PRESSURE  
S - STEADY PRESSURE  
VSB - VISIBILITY IN MILES  
HX - HEAT INDEX IN FAHRENHEIT  
WCI - WIND CHILL INDEX IN FAHRENHEIT  
TC - TEMPERATURE IN CELSIUS WHICH IS ALSO KNOWN AS  
TEMPERATURE IN CENTIGRADE  
AFB - AIR FORCE BASE  
LUKE AFB IS LUKE AIR FORCE BASE  
DAVIS-MONTHAN IS DAVIS-MONTHAN AIR FORCE BASE  
NAS - NAVAL AIR STATION  
EL CENTRO NAS IS EL CENTRO NAVAL AIR STATION  
N/A - NOT AVAILABLE  
 
 
 
CLICK HERE TO GO TO PREVIOUS BULLETINS.

The Nexlab AZ Page Main Text Page